Weather History for Duluth, MN

Change the Weather History Date:

Sunday, March 24, 2013

  Actual Average Record
Temperature  
Mean Temperature 26 °F 29 °F  
Max Temperature 29 °F 38 °F 70 °F (2012)
Min Temperature 22 °F 21 °F -21 °F (1974)
Degree Days  
Heating Degree Days 39 36  
Month to date heating degree days 1112 973  
Since 1 July heating degree days 7620 7840  
Cooling Degree Days 0 0  
Month to date cooling degree days 0 0  
Year to date cooling degree days 0 0  
Moisture  
Dew Point 20 °F    
Average Humidity 75    
Maximum Humidity 88    
Minimum Humidity 62    
Precipitation  
Precipitation T in 0.06 in 1.06 in (1988)
Month to date precipitation 1.57 1.12  
Year to date precipitation 4.12 2.89  
Snow  
Snow T in 0.30 in 7.00 in (1975)
Month to date snowfall 25.5 11.0  
Since 1 July snowfall 78.3 76.6  
Snow Depth 19.00 in    
Sea Level Pressure  
Sea Level Pressure 30.09 in    
Wind  
Wind Speed 8 mph (ENE)    
Max Wind Speed 16 mph    
Max Gust Speed 21 mph    
Visibility 8 miles    
Events Snow    
T = Trace of Precipitation, MM = Missing Value Source: NWS Daily Summary

Daily Weather History Graph

Daily Weather History Graph

Search for Another Location

Airport:

Trip Planner

Search our weather history database for the weather conditions in past years. The results will help you decide how hot, cold, wet, or windy it might be!

Date:

Astronomy

Mar. 24, 2013 Rise Set
Actual Time 7:03 AM CDT 7:27 PM CDT
Civil Twilight 6:32 AM CDT 7:57 PM CDT
Nautical Twilight 5:57 AM CDT 8:33 PM CDT
Astronomical Twilight 5:19 AM CDT 9:11 PM CDT
Moon 4:48 PM CDT (3/24) 5:22 AM CDT (3/24)
Length of Visible Light 13h 24m
Length of Day
12h 24m
Waxing Gibbous, 92% of the Moon is Illuminated
Mar 24
Waxing Gibbous
Mar 27
Full
Apr 2
Last Quarter
Apr 10
New
Apr 18
First Quarter

Hourly Weather History & Observations

Time (CDT) Temp. Windchill Dew Point Humidity Pressure Visibility Wind Dir Wind Speed Gust Speed Precip Events Conditions
12:55 AM 27.0 °F 20.5 °F 21.9 °F 81% 30.16 in 10.0 mi ESE 5.8 mph - N/A   Overcast
1:55 AM 26.1 °F 20.5 °F 19.9 °F 78% 30.16 in 10.0 mi East 4.6 mph - N/A   Overcast
2:55 AM 26.1 °F 21.9 °F 19.9 °F 78% 30.15 in 10.0 mi East 3.5 mph - 0.00 in Snow Light Snow
3:55 AM 26.1 °F 19.4 °F 21.0 °F 81% 30.14 in 9.0 mi East 5.8 mph - 0.00 in Snow Light Snow
4:55 AM 26.1 °F 19.4 °F 21.0 °F 81% 30.13 in 10.0 mi ENE 5.8 mph - 0.00 in   Overcast
5:48 AM 24.8 °F 17.9 °F 21.2 °F 86% 30.07 in 10.0 mi East 5.8 mph - N/A   Overcast
5:55 AM 25.0 °F 19.3 °F 21.9 °F 88% 30.14 in 10.0 mi East 4.6 mph - N/A   Overcast
6:31 AM 24.8 °F 19.1 °F 21.2 °F 86% 30.07 in 10.0 mi East 4.6 mph - N/A   Overcast
6:55 AM 26.1 °F 20.5 °F 21.9 °F 84% 30.14 in 9.0 mi East 4.6 mph - 0.00 in Snow Light Snow
7:06 AM 26.6 °F 21.2 °F 21.2 °F 80% 30.07 in 9.0 mi ENE 4.6 mph - 0.00 in Snow Light Snow
7:55 AM 26.1 °F 20.5 °F 21.0 °F 81% 30.14 in 10.0 mi ENE 4.6 mph - 0.00 in   Overcast
8:09 AM 26.6 °F 20.0 °F 21.2 °F 80% 30.07 in 10.0 mi ENE 5.8 mph - N/A   Overcast
8:55 AM 26.1 °F 18.4 °F 21.9 °F 84% 30.14 in 9.0 mi ENE 6.9 mph - 0.00 in Snow Light Snow
9:55 AM 27.0 °F 19.5 °F 21.9 °F 81% 30.14 in 9.0 mi East 6.9 mph - 0.00 in Snow Light Snow
10:29 AM 28.4 °F 19.7 °F 21.2 °F 74% 30.07 in 9.0 mi East 9.2 mph - 0.00 in Snow Light Snow
10:55 AM 28.0 °F 18.6 °F 21.9 °F 78% 30.14 in 9.0 mi East 10.4 mph - 0.00 in Snow Light Snow
11:11 AM 28.4 °F 19.1 °F 21.2 °F 74% 30.06 in 9.0 mi ENE 10.4 mph - 0.00 in Snow Light Snow
11:55 AM 28.0 °F 18.1 °F 21.0 °F 75% 30.13 in 9.0 mi ENE 11.5 mph - 0.00 in Snow Light Snow
12:09 PM 28.4 °F 19.1 °F 21.2 °F 74% 30.06 in 5.0 mi East 10.4 mph - 0.00 in Snow Light Snow
12:16 PM 28.4 °F 18.5 °F 21.2 °F 74% 30.05 in 1.5 mi ENE 11.5 mph - 0.00 in Snow Light Snow
12:28 PM 28.4 °F 18.5 °F 21.2 °F 74% 30.05 in 2.5 mi ENE 11.5 mph - 0.00 in Snow Light Snow
12:55 PM 28.0 °F 16.5 °F 21.9 °F 78% 30.12 in 1.5 mi East 15.0 mph 20.7 mph 0.00 in Snow Light Snow
1:02 PM 26.6 °F 14.3 °F 21.2 °F 80% 30.04 in 4.0 mi East 16.1 mph - 0.00 in Snow Light Snow
1:55 PM 28.0 °F 18.6 °F 21.0 °F 75% 30.10 in 9.0 mi East 10.4 mph - 0.00 in Snow Light Snow
2:02 PM 28.4 °F 18.0 °F 21.2 °F 74% 30.03 in 9.0 mi East 12.7 mph - 0.00 in   Overcast
2:34 PM 28.4 °F 19.7 °F 21.2 °F 74% 30.02 in 9.0 mi East 9.2 mph - 0.00 in Snow Light Snow
2:55 PM 28.0 °F 19.3 °F 21.0 °F 75% 30.08 in 9.0 mi East 9.2 mph - 0.00 in Snow Light Snow
3:55 PM 28.0 °F 20.0 °F 19.9 °F 72% 30.08 in 9.0 mi East 8.1 mph - 0.00 in Snow Light Snow
4:47 PM 28.4 °F 23.3 °F 21.2 °F 74% 30.00 in 9.0 mi East 4.6 mph - 0.00 in Snow Light Snow
4:55 PM 28.0 °F 21.7 °F 19.9 °F 72% 30.07 in 9.0 mi East 5.8 mph - 0.00 in Snow Light Snow
5:13 PM 28.4 °F 21.2 °F 21.2 °F 74% 30.00 in 9.0 mi ESE 6.9 mph - 0.00 in Snow Light Snow
5:21 PM 28.4 °F 21.2 °F 21.2 °F 74% 30.00 in 9.0 mi East 6.9 mph - 0.00 in Snow Light Snow
5:30 PM 28.4 °F 22.2 °F 21.2 °F 74% 30.00 in 9.0 mi ESE 5.8 mph - 0.00 in Snow Light Snow
5:43 PM 26.6 °F 20.0 °F 21.2 °F 80% 30.01 in 9.0 mi ESE 5.8 mph - 0.00 in Snow Light Snow
5:55 PM 27.0 °F 19.5 °F 21.0 °F 78% 30.08 in 9.0 mi East 6.9 mph - 0.00 in Snow Light Snow
6:06 PM 26.6 °F 20.0 °F 21.2 °F 80% 30.01 in 9.0 mi East 5.8 mph - 0.00 in Snow Light Snow
6:55 PM 27.0 °F 23.0 °F 21.0 °F 78% 30.09 in 9.0 mi Variable 3.5 mph - 0.00 in Snow Light Snow
7:55 PM 28.4 °F 19.7 °F 17.6 °F 64% 30.03 in 10.0 mi NNE 9.2 mph - N/A   Overcast
8:41 PM 26.6 °F 18.2 °F 15.8 °F 64% 30.03 in 10.0 mi North 8.1 mph - N/A   Scattered Clouds
8:55 PM 26.1 °F 19.4 °F 16.0 °F 66% 30.11 in 10.0 mi North 5.8 mph - N/A   Scattered Clouds
9:55 PM 24.1 °F 17.0 °F 14.0 °F 65% 30.11 in 10.0 mi NNW 5.8 mph - N/A   Clear
10:55 PM 23.0 °F 14.7 °F 12.9 °F 65% 30.11 in 10.0 mi NNW 6.9 mph - N/A   Partly Cloudy
11:55 PM 23.0 °F 12.4 °F 12.9 °F 65% 30.10 in 10.0 mi NNW 10.4 mph - N/A   Clear